Regional Weather Roundup
Issued by NWS

Home | Current Version | Previous Version | Graphics & Text | Print | Product List | Glossary Off
Versions: 1 2 3 4 5 6 7 8 9 10 11 12 13 14 15 16 17 18 19 20 21 22 23 24 25 26 27 28 29 30 31 32 33 34 35 36 37 38 39 40 41 42 43 44 45 46 47 48 49 50

679
ASUS43 KDTX 230401
RWRMI
MICHIGAN HOURLY REGIONAL WEATHER ROUNDUP
NATIONAL WEATHER SERVICE DETROIT/PONTIAC MI
1100 PM EST WED FEB 22 2017

NOTE: "FAIR" INDICATES FEW OR NO CLOUDS BELOW 12,000 FEET WITH NO
SIGNIFICANT WEATHER AND/OR OBSTRUCTION TO VISIBILITY.

MIZ047>049-052>055-059>063-066>070-074>076-081>083-230500-
SOUTHEAST LOWER MICHIGAN

CITY           SKY/WX    TMP DP  RH WIND       PRES   REMARKS
ADRIAN         CLEAR     54  52  93 SW10      29.71F
ALMA           PTCLDY    55  51  88 S12       29.62S
ANN ARBOR      CLOUDY    57  54  89 S10       29.70F
BAD AXE        CLOUDY    53  50  89 S10       29.63S
CARO           MOCLDY    56  52  84 S14G22    29.62F
DETROIT CITY   PTCLDY    56  55  97 S12       29.70F
DETROIT        MOCLDY    56  54  93 S9        29.70F
FLINT          PTCLDY    57  51  80 S13       29.65F
GROSSE ILE     FOG       44  43  98 S6        29.70F VSB 1/4
HILLSDALE      CLEAR     54  52  94 S12       29.69F
HOWELL         PTCLDY    56  50  80 S9        29.66F

CITY           SKY/WX    TMP DP  RH WIND       PRES   REMARKS
JACKSON        PTCLDY    57  52  83 S14G23    29.68F
LAMBERTVILLE   CLEAR     59  54  84 S7        29.70F HAZE
LANSING        CLEAR     56  50  80 S14       29.65F
LAPEER         FAIR      57  51  81 S9G22     29.67R
MASON          CLEAR     55  52  89 S3        29.66F
MONROE         CLEAR     57  55  93 S8        29.70F FOG
MT. CLEMENS    PTCLDY    52  52 100 S12       29.68F FOG
PONTIAC        MOCLDY    56  52  86 S7        29.67F
PORT HOPE        N/A     56  50  80 SW8G21    29.60S
PORT HURON     CLOUDY    54  52  94 S15       29.69S FOG
TRI CITIES     CLEAR     56  52  86 S14       29.62S
MIDLAND        MOCLDY    56  50  79 SW6       29.62R
TROY           PTCLDY    57  53  87 S9        29.71S FOG
SAGINAW HB     MOCLDY    57  50  77 S18G24    29.61F
$$
MIZ043>046-050>051-056>058-064>065-071>073-077>080-230500-
SOUTHWEST LOWER MICHIGAN

CITY           SKY/WX    TMP DP  RH WIND       PRES   REMARKS
BATTLE CREEK   PTCLDY    56  53  90 S15       29.66F
BENTON HARBOR  CLEAR     59  53  80 S12       29.63F
BIG RAPIDS     CLOUDY    57  52  83 S10G16    29.58F
COLDWATER      CLEAR     56  54  91 S9G16     29.68F
FREMONT        CLOUDY    56  54  91 S9        29.58F
HOLLAND        CLEAR     58  53  84 S14       29.60F
GRAND RAPIDS   CLEAR     56  51  84 S12       29.61F
IONIA          FAIR      55  51  86 S14       29.62S
KALAMAZOO      MOCLDY    55  50  83 S13       29.66F
LUDINGTON      CLOUDY    53  51  92 S14G22    29.54F FOG
MARSHALL       PTCLDY    56  54  92 S9        29.66F
MOUNT PLEASANT CLOUDY    56  51  83 CALM      29.61F
MUSKEGON       PTCLDY    59  53  80 S24G35    29.58F
SOUTH HAVEN    CLEAR     59  54  85 S13G20    29.62F
$$
MIZ016>042-230500-
NORTHERN LOWER MICHIGAN

CITY           SKY/WX    TMP DP  RH WIND       PRES   REMARKS
ALPENA         CLOUDY    46  44  93 CALM      29.59S
BEAVER ISLAND  FOG       38  38 100 NW3       29.57F VSB 1/2
BELLAIRE       CLOUDY    46  44  95 CALM      29.54F
CADILLAC       PTCLDY    52  50  95 S8        29.55F
CHARLEVOIX     CLOUDY    45  45 100 SE6       29.56F FOG
FRANKFORT      CLOUDY    46  46 100 CALM      29.51F FOG
GAYLORD        CLOUDY    45  41  86 E3        29.56F FOG
GRAYLING       CLOUDY    46  45  97 CALM      29.57F FOG
HARBOR SPRINGS LGT RAIN  41  41 100 E8        29.54F
HOUGHTON LAKE  PTCLDY    48  48 100 SE3       29.57F FOG
MANISTEE       CLEAR     56  51  84 S9G18     29.52F
OSCODA         MOCLDY    52  50  93 S7        29.60F FOG
PELLSTON       LGT RAIN  42  40  92 CALM      29.56S VSB 1/2
ROGERS CITY    LGT RAIN  41  39  93 CALM      29.56F
TRAVERSE CITY  CLOUDY    44  41  89 CALM      29.53F
$$
MIZ007>008-015-230500-
EASTERN UPPER MICHIGAN

CITY           SKY/WX    TMP DP  RH WIND       PRES   REMARKS
KINROSS        RAIN      40  40 100 W7        29.57F VSB 1/4
MACKINAC ISLAN FOG       40  40 100 CALM      29.56F VSB 1/2
NEWBERRY       LGT RAIN  37  36  93 CALM      29.57F
S. S. MARIE    HVY RAIN  39  37  92 CALM      29.57S VSB 1/2
MUNISING         N/A     35  35 100 N3        29.57F
$$
MIZ004>006-011>014-085-230500-
CENTRAL UPPER MICHIGAN

CITY           SKY/WX    TMP DP  RH WIND       PRES   REMARKS
MANISTIQUE     LGT RAIN  38  38  97 NW5       29.56F WCI  35
ESCANABA       CLOUDY    40  38  93 N6        29.56F
MENOMINEE      CLOUDY    42  40  92 N6        29.54F
SAWYER-GWINN   RAIN      34  34  99 N9        29.59S WCI  27
$$
MIZ001>003-009>011-084-230500-
WESTERN UPPER MICHIGAN

CITY           SKY/WX    TMP DP  RH WIND       PRES   REMARKS
IRON MOUNTAIN  CLOUDY    42  39  89 E3        29.55S
HOUGHTON       LGT SNOW  34  30  85 N18G28    29.63R VSB 1   WCI  23
COPPER HARBOR    N/A     36  32  85 NE13      29.65R WCI  27
IRONWOOD       LGT RAIN  34  32  92 NE5       29.66R WCI  30
$$

ABBREVIATIONS USED IN REMARKS
   TC - TEMPERATURE IN CELSIUS
  WCI - WIND CHILL INDEX
   HX - HEAT INDEX
  VSB - VISIBILITY





USA.gov is the U.S. government's official web portal to all federal, state and local government web resources and services.